Weather History for Mt. Pocono, PA

Change the Weather History Date:

Monday, February 4, 2013

  Actual Average Record
Temperature  
Mean Temperature 17 °F 24 °F  
Max Temperature 21 °F 32 °F 49 °F (1909)
Min Temperature 12 °F 16 °F -10 °F (1918)
Degree Days  
Heating Degree Days 48 41  
Month to date heating degree days 197 164  
Since 1 July heating degree days 3897 4195  
Cooling Degree Days 0 0  
Month to date cooling degree days 0 0  
Year to date cooling degree days 0 0  
Moisture  
Dew Point 8 °F    
Average Humidity 63    
Maximum Humidity 76    
Minimum Humidity 49    
Precipitation  
Precipitation T in 0.08 in 1.90 in (1952)
Month to date precipitation 0.09 0.30  
Year to date precipitation 2.14 3.15  
Sea Level Pressure  
Sea Level Pressure 29.88 in    
Wind  
Wind Speed 11 mph (WNW)    
Max Wind Speed 23 mph    
Max Gust Speed 32 mph    
Visibility 9 miles    
Events Snow    
T = Trace of Precipitation, MM = Missing Value Source: NWS Daily Summary

Daily Weather History Graph

Daily Weather History Graph

Search for Another Location

Airport:

Trip Planner

Search our weather history database for the weather conditions in past years. The results will help you decide how hot, cold, wet, or windy it might be!

Date:

Astronomy

Feb. 04, 2013 Rise Set
Actual Time 7:09 AM EST 5:22 PM EST
Civil Twilight 6:40 AM EST 5:51 PM EST
Nautical Twilight 6:07 AM EST 6:24 PM EST
Astronomical Twilight 5:35 AM EST 6:56 PM EST
Moon 1:42 AM EST (2/4) 11:43 AM EST (2/4)
Length of Visible Light 11h 11m
Length of Day
10h 13m
Last Quarter, 37% of the Moon is Illuminated
Feb 4
Last Quarter
Feb 10
New
Feb 17
First Quarter
Feb 25
Full
Mar 4
Last Quarter

Hourly Weather History & Observations

Time (EST) Temp. Windchill Dew Point Humidity Pressure Visibility Wind Dir Wind Speed Gust Speed Precip Events Conditions
12:53 AM 17.1 °F 2.0 °F 9.0 °F 71% 29.81 in 5.0 mi WNW 16.1 mph 28.8 mph 0.00 in Snow Light Snow
1:40 AM 15.8 °F -0.2 °F 6.8 °F 68% 29.73 in 10.0 mi WNW 17.3 mph 23.0 mph 0.00 in   Scattered Clouds
1:53 AM 16.0 °F 2.9 °F 6.1 °F 65% 29.83 in 10.0 mi WNW 11.5 mph 21.9 mph 0.00 in   Scattered Clouds
2:24 AM 15.8 °F 1.4 °F 6.8 °F 68% 29.74 in 10.0 mi WNW 13.8 mph 20.7 mph N/A   Mostly Cloudy
2:53 AM 15.1 °F 1.8 °F 6.1 °F 68% 29.85 in 10.0 mi WNW 11.5 mph 18.4 mph N/A   Scattered Clouds
3:53 AM 15.1 °F 2.5 °F 8.1 °F 74% 29.85 in 8.0 mi WNW 10.4 mph - 0.00 in Snow Light Snow
5:53 AM 12.9 °F -0.9 °F 6.1 °F 74% 29.88 in 10.0 mi WNW 11.5 mph - N/A   Clear
6:53 AM 12.9 °F -2.2 °F 6.1 °F 74% 29.90 in 10.0 mi WNW 13.8 mph 23.0 mph N/A   Clear
7:53 AM 12.9 °F -2.8 °F 7.0 °F 77% 29.92 in 10.0 mi WNW 15.0 mph 19.6 mph N/A   Clear
8:53 AM 16.0 °F 1.1 °F 7.0 °F 68% 29.93 in 9.0 mi WNW 15.0 mph 24.2 mph N/A   Partly Cloudy
9:15 AM 15.8 °F 0.9 °F 6.8 °F 68% 29.83 in 4.0 mi WNW 15.0 mph 20.7 mph 0.00 in Snow Light Snow
9:53 AM 17.1 °F 3.0 °F 6.1 °F 62% 29.93 in 10.0 mi WNW 13.8 mph 26.5 mph 0.00 in   Overcast
10:53 AM 17.1 °F 2.0 °F 6.1 °F 62% 29.94 in 9.0 mi WNW 16.1 mph 24.2 mph N/A   Overcast
11:06 AM 17.6 °F 5.0 °F 6.8 °F 63% 29.85 in 8.0 mi West 11.5 mph 24.2 mph 0.00 in   Overcast
11:53 AM 19.0 °F 6.8 °F 6.1 °F 57% 29.92 in 10.0 mi WNW 11.5 mph 21.9 mph 0.00 in   Overcast
12:53 PM 19.9 °F 6.2 °F 3.9 °F 50% 29.91 in 10.0 mi West 15.0 mph 21.9 mph N/A   Mostly Cloudy
1:53 PM 19.9 °F 5.7 °F 3.9 °F 50% 29.90 in 10.0 mi West 16.1 mph 24.2 mph N/A   Partly Cloudy
2:53 PM 19.9 °F 9.3 °F 3.9 °F 50% 29.90 in 10.0 mi WNW 9.2 mph - N/A   Mostly Cloudy
3:53 PM 19.9 °F 5.7 °F 6.1 °F 55% 29.91 in 10.0 mi West 16.1 mph 21.9 mph N/A   Mostly Cloudy
4:53 PM 19.9 °F 7.3 °F 6.1 °F 55% 29.91 in 10.0 mi West 12.7 mph - N/A   Partly Cloudy
5:53 PM 19.0 °F 8.2 °F 7.0 °F 59% 29.92 in 10.0 mi West 9.2 mph - N/A   Overcast
6:53 PM 19.0 °F 12.3 °F 8.1 °F 62% 29.94 in 10.0 mi WSW 4.6 mph - N/A   Overcast
7:53 PM 19.0 °F 12.3 °F 9.0 °F 65% 29.93 in 10.0 mi WNW 4.6 mph - N/A   Overcast
8:53 PM 19.0 °F 13.9 °F 9.0 °F 65% 29.93 in 10.0 mi WSW 3.5 mph - N/A   Overcast
9:53 PM 19.0 °F 12.3 °F 10.9 °F 71% 29.93 in 9.0 mi WSW 4.6 mph - 0.00 in   Overcast
10:53 PM 19.0 °F 12.3 °F 14.0 °F 81% 29.91 in 5.0 mi West 4.6 mph - 0.00 in Snow Light Snow
11:40 PM 19.4 °F - 15.8 °F 86% 29.81 in 8.0 mi Calm Calm - 0.00 in   Overcast
11:53 PM 19.9 °F - 15.1 °F 81% 29.90 in 5.0 mi Calm Calm - 0.00 in Snow Light Snow